星链-31695 (STARLINK-31695 )

导读

STARLINK-31695是美国太空探索技术公司SpaceX星链星座的卫星,于2024年4月2日发射入轨,属于星链低轨互联网星座组网卫星。星链系统旨在为全球提供高速宽带互联网服务,该卫星延续星链技术标准,承担天地互联信号转发任务,支撑星座全球覆盖能力拓展。

Basic Information
目录编号:
59376
目录名称:
STARLINK-31695
国际标识:
2024-062C
轨道中心:
EARTH
卫星名称:
星链-31695
卫星全名:
星链-31695 (STARLINK-31695 )
卫星状态:
在轨 (已飞行806 天)
发射日期:
2024-04-02 UTC
国别 :
美国 (US)
星等 :
--
Orbit Information
数据来源 国际轨道数据 AOE轨道数据
星历时间 2026-06-17T13:09:59+0800
6小时前
查看轨道信息
2026-06-15T05:00:00+0800
2天前
查看轨道信息
半长轴 6840.88km 6840.874km
偏心率 0.0001131 0.0001286
轨道倾角 53.161° 53.157°
近地点辐角 89.141° 86.785°
升交点赤经 153.067° 164.008°
平近点角 270.972° 298.930°
近地点 461.969km 461.857km
远地点 463.517km 463.617km
周期 93.849分钟 93.848分钟
每日圈数 15.343868 15.343889
Detailed Information
固有亮度:
5
最大亮度:
0.3
卫星平台:
Starlink v2.0 mini
覆盖范围:
全球
运营商:
太空探索技术公司
运营商所在国:
美国
制造商(研发单位):
太空探索技术公司
制造商所在国:
美国
使用方式:
暂无
Satellite Introduction
星链(Starlink)计划是由太空探索技术公司(SpaceX)提出的一个巨型低轨卫星互联网星座项目,计划在2019年至2024年间在太空搭建由约1.2万颗卫星组成的“星链”网络,其中1584颗将部署在地球上空550千米处的近地轨道,并从2020年开始工作。该卫星仍在工作。
2D Orbit Map
3D Orbit Map
Orbit Altitude Analysis Chart
Orbit Inclination Analysis Chart
Orbit Comprehensive Analysis Chart
View Comprehensive Chart